Tracking 29892 objects as of 21-Nov-2024
HD Live streaming from Space Station
objects crossing your sky now

SL-8 R/B

Track SL-8 R/B now!
10-day predictions


NORAD ID: 11736
Int'l Code: 1980-022B
Perigee: 957.1 km
Apogee: 1,008.2 km
Inclination: 82.9 °
Period: 104.6 minutes
Semi major axis: 7353 km
RCS: 4.6275 m2 (large)
Launch date: March 17, 1980
Source: Commonwealth of Independent States (former USSR) (CIS)
Launch site: PLESETSK MISSILE AND SPACE COMPLEX (PKMTR)

Note: This is a ROCKET BODY
Your satellite tracking list
Your tracking list is empty




NASA's NSSDC Master Catalog

Two Line Element Set (TLE):
1 11736U 80022B   24325.82496381  .00000217  00000-0  20420-3 0  9998
2 11736  82.9399 303.0073 0034758  66.2066 294.2729 13.76724374243850
Source of the keplerian elements: AFSPC